Weather History for Georgetown, DE

Change the Weather History Date:

Thursday, January 30, 2014

  Actual Average Record
Temperature  
Mean Temperature 13 °F 35 °F  
Max Temperature 30 °F 44 °F 77 °F (2002)
Min Temperature -5 °F 27 °F -5 °F (2014)
Degree Days  
Heating Degree Days 52 30  
Month to date heating degree days 1013 897  
Since 1 July heating degree days 2509 2479  
Cooling Degree Days 0 0  
Month to date cooling degree days 0 0  
Year to date cooling degree days 0 0  
Moisture  
Dew Point 10 °F    
Average Humidity 62    
Maximum Humidity 84    
Minimum Humidity 39    
Precipitation  
Precipitation 0.00 in 0.09 in 1.40 in (1966)
Month to date precipitation 3.04 2.83  
Year to date precipitation 3.04 2.83  
Sea Level Pressure  
Sea Level Pressure 30.37 in    
Wind  
Wind Speed 2 mph (SE)    
Max Wind Speed 7 mph    
Max Gust Speed -    
Visibility 10 miles    
Events      
T = Trace of Precipitation, MM = Missing Value Source: NWS Daily Summary

Daily Weather History Graph

Daily Weather History Graph

Search for Another Location

Airport:

Trip Planner

Search our weather history database for the weather conditions in past years. The results will help you decide how hot, cold, wet, or windy it might be!

Date:

Astronomy

Jan. 30, 2014 Rise Set
Actual Time 7:08 AM EST 5:20 PM EST
Civil Twilight 6:40 AM EST 5:49 PM EST
Nautical Twilight 6:08 AM EST 6:21 PM EST
Astronomical Twilight 5:37 AM EST 6:52 PM EST
Moon 6:33 AM EST (1/30) 5:29 PM EST (1/30)
Length of Visible Light 11h 08m
Length of Day
10h 12m
Waning Crescent, 0% of the Moon is Illuminated
Jan 30
Waning Crescent
Jan 30
New
Feb 6
First Quarter
Feb 14
Full
Feb 22
Last Quarter

Hourly Weather History & Observations

Time (EST) Temp. Windchill Dew Point Humidity Pressure Visibility Wind Dir Wind Speed Gust Speed Precip Events Conditions
12:54 AM - - - N/A% 30.40 in 10.0 mi Calm Calm - N/A   Clear
1:54 AM - - - N/A% 30.41 in 10.0 mi Calm Calm - N/A   Clear
2:54 AM - - - N/A% 30.42 in 10.0 mi Calm Calm - N/A   Clear
3:54 AM - - - N/A% 30.43 in 10.0 mi Calm Calm - N/A   Clear
4:54 AM - - - N/A% 30.43 in 10.0 mi Calm Calm - N/A   Clear
5:54 AM - - - N/A% 30.45 in 10.0 mi Calm Calm - N/A   Clear
6:54 AM - - - N/A% 30.46 in 10.0 mi Calm Calm - N/A   Clear
7:54 AM - - - N/A% 30.48 in 7.0 mi Calm Calm - N/A   Clear
8:54 AM - - - N/A% 30.49 in 8.0 mi Calm Calm - N/A   Clear
9:54 AM - - - N/A% 30.49 in 10.0 mi Calm Calm - N/A   Clear
10:54 AM - - - N/A% 30.49 in 10.0 mi Variable 3.5 mph - N/A   Clear
11:54 AM - - - N/A% 30.46 in 10.0 mi East 5.8 mph - N/A   Clear
12:54 PM 28.0 °F 20.8 °F 8.1 °F 43% 30.43 in 10.0 mi ESE 6.9 mph - N/A   Clear
1:54 PM 28.9 °F - 7.0 °F 40% 30.39 in - Calm Calm - N/A   Clear
2:54 PM 30.0 °F 26.5 °F 8.1 °F 40% 30.37 in 10.0 mi SW 3.5 mph - N/A   Clear
3:54 PM 28.0 °F 24.2 °F 10.0 °F 47% 30.36 in 10.0 mi SW 3.5 mph - N/A   Clear
4:54 PM 28.0 °F 21.7 °F 12.0 °F 51% 30.36 in 10.0 mi ESE 5.8 mph - N/A   Clear
5:54 PM 23.0 °F 14.7 °F 12.9 °F 65% 30.32 in 10.0 mi ESE 6.9 mph - N/A   Clear
6:54 PM 21.9 °F - 12.9 °F 68% 30.32 in 10.0 mi Calm Calm - N/A   Clear
7:54 PM 18.0 °F - 12.0 °F 78% 30.29 in 10.0 mi Calm Calm - N/A   Clear
8:54 PM 16.0 °F - 10.9 °F 81% 30.28 in 10.0 mi Calm Calm - N/A   Clear
9:54 PM 16.0 °F - 10.9 °F 81% 30.27 in 10.0 mi Calm Calm - N/A   Clear
10:41 PM 14.0 °F - 10.0 °F 84% 30.26 in 10.0 mi Calm Calm - N/A   Mostly Cloudy
10:49 PM 14.0 °F - 8.6 °F 79% 30.26 in 10.0 mi Calm Calm - N/A   Scattered Clouds
10:54 PM 12.9 °F - 9.0 °F 84% 30.25 in 10.0 mi Calm Calm - N/A   Scattered Clouds
11:37 PM 14.0 °F - 10.0 °F 84% 30.24 in 10.0 mi Calm Calm - N/A   Mostly Cloudy
11:54 PM 14.0 °F - 10.0 °F 84% 30.23 in 10.0 mi Calm Calm - N/A   Mostly Cloudy